Location: Unspecified
(0.0000°N, 0.0000°E)
Time: 11:37:50
(UTC+00:00)

STARS - Pass Details

Date: 15 December 2017
Orbit: 626 x 640 km, 98.3° (Epoch: 20 June)

Event Time Altitude Azimuth Distance (km) Brightness Sun altitude
Rises 18:36:49 0° 336° (NNW) 2,897 ? -9.5°
Reaches altitude 10° 18:40:16 10° 307° (NW) 1,996 ? -10.3°
Maximum altitude 18:42:02 12° 282° (WNW) 1,850 ? -10.7°
Drops below altitude 10° 18:43:48 10° 258° (WSW) 2,003 ? -11.1°
Sets 18:47:18 0° 228° (SW) 2,918 ? -11.9°
